Simultaneous Nadir Overpasses (SNOs) Predictions

Prediction of SNOs near US between AQUA and NPP Satellite Orbit:

Table of predicted SNOs near US for the next 10.0 days since TLE Epoch: 2/12/2016
Index Date (AQUA) Time (AQUA) AQUA Lat,Lon Date (NPP) Time (NPP) NPP Lat,Lon Distance(km) Time Diff (sec)
1 02/15/2016 08:34:36 22.02,-101.40 02/15/2016 08:26:49 22.06,-101.51 12.67 467
2 02/15/2016 10:10:58 31.12,-123.84 02/15/2016 10:05:42 31.24,-124.47 61.12 316
3 02/18/2016 07:18:54 49.93, -75.97 02/18/2016 07:21:33 50.35, -78.15 162.43 159
4 02/18/2016 08:57:48 49.88,-100.71 02/18/2016 09:03:01 50.45,-103.48 207.18 313
5 02/20/2016 18:17:07 49.98, -80.21 02/20/2016 18:11:47 49.70, -81.66 108.78 320
6 02/20/2016 19:56:00 49.97,-104.93 02/20/2016 19:53:15 49.60,-106.99 153.97 165
7 02/20/2016 21:31:09
